Change the Weather History Date:

Friday, August 15, 2014

  Actual Average Record
Temperature  
Mean Temperature 84 °F 82 °F  
Max Temperature 94 °F 91 °F 99 °F (2007)
Min Temperature 73 °F 72 °F 64 °F (2004)
Degree Days  
Heating Degree Days 0    
Month to date heating degree days 0  
Since 1 June heating degree days 0  
Since 1 July heating degree days 0  
Cooling Degree Days 19    
Month to date cooling degree days 282  
Year to date cooling degree days 1736  
Since 1 June cooling degree days 1302  
Growing Degree Days 33 (Base 50)    
Moisture  
Dew Point 68 °F    
Average Humidity 63    
Maximum Humidity 87    
Minimum Humidity 39    
Precipitation  
Precipitation 0.00 in 0.19 in 0.69 in (1997)
Month to date precipitation 2.12 3.05  
Year to date precipitation 41.34 35.95  
Sea Level Pressure  
Sea Level Pressure 29.97 in    
Wind  
Wind Speed 3 mph (NNW)    
Max Wind Speed 14 mph    
Max Gust Speed 20 mph    
Visibility 10 miles    
Events Rain    
T = Trace of Precipitation, MM = Missing Value Source: NWS Daily Summary

Daily Weather History Graph

Daily Weather History Graph

Search for Another Location

Airport or City:

Trip Planner

Search our weather history database for the weather conditions in past years. The results will help you decide how hot, cold, wet, or windy it might be!

Date:

Astronomy

Aug. 15, 2014 Rise Set
Actual Time 6:06 AM CDT 7:22 PM CDT
Civil Twilight 5:41 AM CDT 7:48 PM CDT
Nautical Twilight 5:11 AM CDT 8:18 PM CDT
Astronomical Twilight 4:39 AM CDT 8:49 PM CDT
Moon 10:51 PM CDT (8/15) 11:23 AM CDT (8/15)
Length of Visible Light 14h 06m
Length of Day
13h 15m
Waning Gibbous, 69% of the Moon is Illuminated
Aug 15
Waning Gibbous
Aug 17
Last Quarter
Aug 25
New
Sep 2
First Quarter
Sep 8
Full

Hourly Weather History & Observations

Time (CDT) Temp. Heat Index Dew Point Humidity Pressure Visibility Wind Dir Wind Speed Gust Speed Precip Events Conditions
12:53 AM 79.0 °F - 69.1 °F 72% 29.96 in 10.0 mi North 3.5 mph - N/A   Mostly Cloudy
1:53 AM 77.0 °F - 70.0 °F 79% 29.96 in 10.0 mi NNE 3.5 mph - N/A   Clear
2:53 AM 75.9 °F - 69.1 °F 79% 29.95 in 10.0 mi NE 3.5 mph - N/A   Mostly Cloudy
3:53 AM 75.0 °F - 70.0 °F 84% 29.96 in 10.0 mi Calm Calm - N/A   Clear
4:53 AM 75.0 °F - 70.0 °F 84% 29.96 in 10.0 mi Calm Calm - N/A   Overcast
5:53 AM 73.9 °F - 70.0 °F 87% 29.98 in 10.0 mi Calm Calm - 0.00 in Rain Light Rain
6:53 AM 73.9 °F - 71.1 °F 91% 29.99 in 10.0 mi Calm Calm - 0.00 in   Scattered Clouds
7:53 AM 79.0 °F - 68.0 °F 69% 30.01 in 10.0 mi Calm Calm - N/A   Partly Cloudy
9:53 AM 84.9 °F 88.2 °F 68.0 °F 57% 30.03 in 10.0 mi NNE 4.6 mph - N/A   Clear
10:53 AM 88.0 °F 89.6 °F 64.9 °F 46% 30.02 in 10.0 mi ENE 4.6 mph - 0.00 in   Clear
11:53 AM 90.0 °F 91.7 °F 64.9 °F 43% 30.00 in 10.0 mi Variable 4.6 mph - N/A   Clear
12:53 PM 89.1 °F 91.0 °F 64.9 °F 45% 29.98 in 10.0 mi NNW 6.9 mph - N/A   Mostly Cloudy
1:53 PM 89.1 °F 91.3 °F 66.0 °F 46% 29.97 in 10.0 mi Calm Calm - N/A   Mostly Cloudy
2:53 PM 93.0 °F 95.0 °F 64.9 °F 39% 29.96 in 10.0 mi NW 6.9 mph - N/A   Mostly Cloudy
3:53 PM 91.9 °F 93.3 °F 64.0 °F 39% 29.94 in 10.0 mi WNW 6.9 mph - N/A   Scattered Clouds
4:53 PM 91.9 °F 94.1 °F 64.9 °F 41% 29.95 in 10.0 mi WNW 10.4 mph - N/A   Partly Cloudy
5:53 PM 91.0 °F 93.0 °F 64.9 °F 42% 29.94 in 10.0 mi WNW 9.2 mph - N/A   Clear
6:53 PM 88.0 °F 90.3 °F 66.0 °F 48% 29.94 in 10.0 mi WNW 4.6 mph - N/A   Clear
7:53 PM 84.9 °F 87.6 °F 66.9 °F 55% 29.94 in 10.0 mi Calm Calm - 0.00 in   Scattered Clouds
8:53 PM 81.0 °F 84.1 °F 69.1 °F 67% 29.96 in 10.0 mi Calm Calm - N/A   Clear
9:53 PM 75.0 °F - 70.0 °F 84% 29.97 in 10.0 mi SW 5.8 mph - 0.00 in Rain Light Rain
10:53 PM 77.0 °F - 69.1 °F 76% 29.97 in 10.0 mi Calm Calm - 0.00 in   Clear